Terminal Aerodrome Forecast
Issued by NWS Buffalo, NY

Home | Current Version | Previous Version | Text Only | Print | Product List | Glossary On
Versions: 1 2 3 4 5 6 7 8 9 10 11 12 13 14 15 16 17 18 19 20 21 22 23 24 25
000
FTUS41 KBUF 282300
TAFART
TAF
KART 282327Z 2900/2924 33004KT P6SM OVC070
     FM290200 36004KT P6SM SCT120
     FM290500 VRB03KT P6SM SCT200
     FM292100 26004KT P6SM BKN200
     FM292300 VRB03KT P6SM BKN200=

USA.gov is the U.S. government's official web portal to all federal, state and local government web resources and services.